Location: Altmatt
(47.1333°N, 8.7000°E)
Time: 17:19:04
(UTC+00:00)

Cosmos 2278 Rocket - Pass Details

Date: 13 July 2020
Orbit: 841 x 845 km, 71.0° (Epoch: 11 August)

Event Time Altitude Azimuth Distance (km) Brightness Sun altitude
Rises 20:48:21 0° 328° (NNW) 3,414 7.4 -12.1°
Reaches altitude 10° 20:50:54 10° 322° (NW) 2,474 6.2 -12.3°
Maximum altitude 20:56:13 43° 252° (WSW) 1,171 3.1 -12.9°
Enters shadow 21:01:20 11° 183° (S) 2,393 4.1 -13.4°
